Location: Armstrong Village
(14.3346°N, 120.9854°E)
Time: 15:02:22
(UTC+00:00)

Delta 168 - Visible Passes

Search period start: 19 April 2026 00:00
Search period end: 29 April 2026 00:00
Orbit: 391 x 1866 km, 25.3° (Epoch: 19 April)

Date Brightness Start Highest point End Pass type
(mag) Time Alt. Az. Time Alt. Az. Time Alt. Az.
19 Apr 6.5 17:54:03 28° ESE 17:54:03 28° ESE 17:59:14 10° E visible
19 Apr 5.2 19:41:50 47° SW 19:46:04 80° SSE 19:56:03 10° ENE visible
20 Apr 7.1 17:15:09 15° E 17:15:09 15° E 17:16:59 10° E visible
20 Apr 5.2 19:02:56 70° S 19:03:54 73° SSE 19:14:33 10° ENE visible
20 Apr 5.4 20:50:42 14° W 21:00:58 63° NNW 21:09:58 10° ENE visible
21 Apr 5.6 18:23:59 57° ESE 18:23:59 57° ESE 18:32:48 10° ENE visible
21 Apr 5.3 20:11:45 28° W 20:18:50 69° NNW 20:28:44 10° ENE visible
22 Apr 6.3 17:44:58 34° E 17:44:58 34° E 17:50:48 10° ENE visible
22 Apr 5.3 19:32:44 49° W 19:36:35 75° NNW 19:47:16 10° ENE visible
23 Apr 7.0 17:05:54 19° E 17:05:54 19° E 17:08:32 10° E visible
23 Apr 5.2 18:53:39 79° WNW 18:54:16 81° NNW 19:05:35 10° ENE visible
23 Apr 5.7 20:41:25 13° W 20:51:51 51° NNW 21:01:24 10° ENE visible
24 Apr 5.5 18:14:32 62° ENE 18:14:32 62° ENE 18:23:39 10° ENE visible
24 Apr 5.7 20:02:18 25° W 20:09:32 55° NNW 20:19:52 10° ENE visible
25 Apr 6.3 17:35:23 37° ENE 17:35:23 37° ENE 17:41:30 10° ENE visible
25 Apr 5.6 19:23:08 43° WNW 19:27:08 59° NNW 19:38:08 10° ENE visible
26 Apr 6.9 16:56:11 21° ENE 16:56:11 21° ENE 16:59:09 10° ENE visible
26 Apr 5.4 18:43:57 61° NNW 18:44:42 62° NNW 18:56:11 10° ENE visible
26 Apr 6.0 20:31:42 10° WNW 20:42:45 47° N 20:52:44 10° ENE visible
27 Apr 5.7 18:04:44 56° NNE 18:04:44 56° NNE 18:14:01 10° ENE visible
27 Apr 5.9 19:52:30 21° WNW 20:00:17 48° N 20:10:55 10° ENE visible
28 Apr 6.3 17:25:32 36° NE 17:25:32 36° NE 17:31:40 10° ENE visible
28 Apr 5.8 19:13:17 35° NW 19:17:47 50° N 19:28:52 10° ENE visible
28 Apr 6.1 21:04:47 10° WNW 21:16:02 49° N 21:25:57 10° ENE visible
